#timestamp,LO_Frequency,Hit,StdDev 
1506488415.2,286047001.2,N
1506488435.0,286046998.3,N
1506488435.9,286046998.3,N
1506488455.7,286046998.5,N
1506488475.6,286047001.1,N
1506488495.4,286047001.0,N
1506488515.3,286047001.0,N
1506488535.1,286046998.9,N
1506488536.0,286046998.9,N
1506488555.8,286046998.9,N
1506488575.7,286046996.5,Y
1506488595.5,286046998.5,P
1506488615.4,286046998.3,P
1506488635.2,286046996.6,P
1506488655.0,286046999.3,N
1506488655.9,286046999.3,N
1506488675.8,286046998.8,N
1506488695.6,286046998.5,N
1506488715.4,286046998.5,N
1506488735.3,286046998.3,N
1506488755.1,286047000.4,N
1506488775.9,286046998.5,N
1506488795.7,286047000.8,N
1506488815.5,286047000.8,N
1506488835.4,286046998.7,N
1506488855.2,286046998.8,N
1506488875.1,286046998.4,N
1506488876.0,286046998.4,N
1506488895.8,286047001.2,N
1506488915.6,286047000.9,N
1506488935.5,286047000.8,N
1506488955.3,286047000.0,N
1506488975.1,286047000.1,N
1506488995.9,286046999.8,N
1506489015.7,286046999.7,N
1506489035.6,286047002.5,N
1506489085.4,286047000.9,E
1506489095.4,286047001.0,N
1506489115.2,286046998.3,P
1506489135.0,286046998.4,N
1506489135.9,286046998.4,N
1506489155.8,286046999.9,N
1506489175.6,286047000.5,N
1506489195.5,286047002.8,N
1506489215.3,286046999.8,N
1506489235.1,286047000.6,N
1506489255.9,286047000.2,N
1506489275.7,286047002.7,N
1506489295.5,286047002.0,N
1506489315.4,286047001.3,N
1506489335.2,286047002.6,N
1506489355.1,286047002.0,N
1506489356.0,286047002.0,N
1506489375.8,286047002.5,N
1506489395.6,286047002.4,N
1506489415.5,286047000.7,N
1506489435.3,286047002.4,N
1506489455.2,286047001.8,N
1506489475.9,286047001.4,N
1506489495.7,286046999.7,N
1506489515.6,286047001.8,N
1506489535.4,286047002.6,N
1506489555.3,286047002.2,N
1506489575.1,286047002.6,N
1506489576.0,286047002.6,N
1506489595.8,286047001.4,N
1506489615.7,286047002.0,N
1506489635.5,286047002.6,N
1506489655.3,286047002.2,N
1506489675.2,286047001.3,N
1506489695.0,286047001.5,N
1506489695.9,286047001.5,N
1506489715.8,286047001.8,N
1506489735.6,286047002.8,Y
1506489755.4,286047000.8,P
1506489775.3,286047000.8,N
1506489795.1,286047000.8,N
1506489815.9,286047000.3,N
1506489835.7,286047001.2,N
1506489855.5,286047000.3,N
1506489875.4,286047000.0,N
1506489895.2,286047002.8,Y
1506489915.0,286047000.4,P
1506489916.0,286047000.4,N
1506489935.8,286047002.6,P
1506489955.6,286046999.9,N
1506489975.5,286047002.7,N
1506489995.3,286047002.8,N
1506490015.1,286047002.6,N
1506490035.9,286047002.4,N
1506490055.7,286047001.4,N
1506490075.6,286047002.3,N
1506490095.4,286047002.7,N
1506490115.2,286047002.3,N
1506490135.1,286047002.2,N
1506490136.0,286047002.2,N
1506490155.8,286047002.6,N
1506490175.6,286047002.3,N
1506490195.5,286047002.6,N
1506490215.3,286047001.5,N
1506490235.2,286047002.5,N
1506490255.9,286047001.9,N
1506490275.7,286047000.3,N
1506490295.6,286047000.1,N
1506490315.4,286047002.2,N
1506490335.3,286046999.7,N
1506490355.1,286047000.5,N
1506490356.0,286047000.5,N
1506490375.8,286047000.6,N
1506490395.7,286047001.2,N
1506490415.5,286046998.3,N
1506490435.4,286047000.3,N
1506490455.2,286047000.6,N
1506490475.0,286047002.8,N
1506490475.9,286047002.8,N
1506490495.8,286047000.1,N
1506490515.6,286047002.4,N
1506490535.4,286047002.7,N
1506490555.3,286047002.5,N
1506490575.1,286047002.4,N
1506490595.9,286047001.9,N
1506490615.7,286047001.7,N
1506490635.5,286047002.4,N
1506490655.4,286047002.0,N
1506490675.2,286047002.8,N
1506490695.0,286047002.1,N
1506490695.9,286047002.1,N
1506490715.8,286047002.4,N
1506490735.6,286047001.5,N
1506490755.5,286047002.8,N
1506490775.3,286047002.2,N
1506490795.1,286047001.6,N
1506490815.9,286047004.2,Y
1506490835.7,286047002.1,P
1506490855.6,286047001.6,P
1506490875.4,286047002.5,P
1506490895.2,286046999.9,N
1506490915.1,286047001.1,N
1506490916.0,286047001.1,N
1506490935.8,286047000.4,N
1506490955.6,286047000.7,N
1506490975.5,286047000.9,N
1506490995.3,286047000.1,N
1506491015.2,286047000.4,N
1506491035.9,286047000.1,N
1506491055.7,286046999.8,N
1506491075.6,286046999.7,N
1506491095.4,286047002.4,N
1506491115.3,286047002.8,Y
1506491135.1,286047002.6,P
1506491136.0,286047002.6,P
1506491155.8,286047002.8,P
1506491175.7,286047002.0,N
1506491195.5,286047004.4,Y
1506491215.3,286047000.5,P
1506491235.2,286047000.9,N
1506491255.0,286047000.9,N
1506491255.9,286047000.9,N
1506491275.8,286047000.7,N
1506491295.6,286046999.4,N
1506491315.4,286046996.5,Y
1506491335.3,286046997.2,P
1506491355.1,286046997.1,N
1506491375.9,286046997.1,N
1506491395.7,286046996.9,N
1506491415.5,286046999.1,N
1506491435.4,286046999.3,N
1506491455.2,286046998.7,N
1506491475.0,286046999.1,N
1506491475.9,286046999.1,N
1506491495.8,286046999.2,N
1506491515.6,286047000.6,N
1506491535.5,286047001.1,N
1506491555.3,286047000.6,N
1506491575.1,286046998.1,N
1506491595.9,286046999.0,N
1506491615.7,286047001.1,N
1506491635.6,286046998.4,N
1506491655.4,286046996.9,N
1506491675.2,286046999.4,N
1506491695.1,286046996.6,N
1506491696.0,286046996.6,N
1506491715.8,286046999.3,N
1506491735.6,286046998.9,N
1506491755.5,286046998.7,N
1506491775.3,286046996.5,N
1506491795.2,286046996.7,N
1506491815.9,286046997.6,N
1506491835.7,286046995.1,Y
1506491855.6,286046998.2,P
1506491875.4,286046999.7,N
1506491895.3,286047000.1,N
1506491915.1,286047000.7,N
1506491916.0,286047000.7,N
1506491935.8,286047000.3,N
1506491955.7,286047000.0,N
1506491975.5,286046998.7,N
1506491995.3,286047000.6,N
